Temperature
29 26 25 25 26 27 26 26 26 26 27 25 24 24 24 24 24 23 23 22 22 22 22 22 21 21 21 20 20 20 20 19 19 19 19 18 18 18 17 17 17 17 17 17
26 26 27 28 28 28 27 26 26 27 27 26 24 24 24 24 24 23 23 22 22 22 21 21 21 21 21 21 20 20 20 19 19 19 19 18 18 18 17 17 17 17 17 17
26 27 29 29 29 28 27 27 26 26 26 25 24 23 23 24 24 23 23 23 22 22 21 21 21 21 21 21 20 20 20 19 19 19 18 18 18 18 17 17 17 17 17 17
27 28 29 29 29 28 27 28 28 27 24 23 24 22 23 22 23 23 23 22 22 22 22 21 21 21 21 21 20 20 20 19 19 19 18 18 18 18 17 17 17 17 17 17
27 28 29 29 29 29 28 29 28 27 24 23 23 22 22 22 22 22 23 23 23 22 22 22 21 21 21 20 20 20 19 19 19 18 18 18 18 17 17 17 17 17 17 17
28 29 29 29 30 30 29 27 25 23 22 22 22 22 22 21 22 23 23 23 23 23 22 22 22 21 21 20 20 20 19 19 19 18 18 18 18 17 17 17 17 17 17 17
27 28 29 30 29 29 27 24 23 23 22 22 22 22 22 23 24 23 23 23 23 23 23 22 22 21 21 20 20 20 19 19 19 18 18 18 17 17 17 17 17 17 17 17
26 26 28 29 28 28 27 25 23 23 22 22 22 22 23 24 24 25 24 24 23 23 23 22 22 22 21 21 20 20 19 19 18 18 18 18 17 17 17 17 17 17 17 16
25 26 28 29 30 28 27 25 24 22 22 21 22 22 23 24 23 23 24 24 23 23 23 22 22 22 22 21 21 20 19 19 18 18 18 18 17 17 17 17 17 16 16 16
26 26 27 28 29 28 27 26 22 22 22 22 22 22 22 23 23 23 23 23 23 23 23 22 22 22 22 21 21 20 19 19 19 18 18 18 17 17 17 17 17 16 16 16
26 25 26 27 27 27 27 26 23 20 21 21 21 22 23 22 22 22 22 23 23 23 23 23 22 22 21 21 20 20 19 19 18 18 18 18 17 17 17 17 17 17 16 16
25 23 24 25 26 27 27 26 23 23 22 20 20 22 24 23 23 23 23 23 24 23 23 23 22 22 21 21 20 20 19 19 18 18 18 18 18 17 17 17 17 17 16 16
26 23 23 24 24 26 27 26 24 21 20 20 21 22 23 22 23 24 23 23 23 23 23 22 22 22 21 20 20 20 19 19 18 18 18 18 17 17 17 17 17 16 16 16
26 22 23 24 24 25 26 26 25 23 21 21 22 22 22 22 22 22 23 23 23 23 23 22 22 21 21 21 20 20 19 19 18 18 18 17 17 17 17 17 16 16 16 16
24 23 24 24 25 26 26 26 26 25 23 22 22 22 22 22 22 22 23 23 23 22 22 22 22 21 21 20 20 20 19 19 18 18 18 17 17 17 17 17 16 16 16 16
22 23 24 24 25 26 26 26 26 25 25 23 23 22 22 22 23 22 22 22 22 22 22 22 21 21 21 21 20 20 19 19 18 18 17 17 17 17 17 17 16 16 16 16
21 22 22 22 24 24 24 25 25 24 24 23 22 22 22 22 22 22 22 22 22 21 21 21 21 21 21 21 20 20 19 19 18 18 17 17 17 17 17 16 16 16 16 16
21 20 19 20 23 23 23 24 25 24 23 23 22 22 22 22 22 22 23 22 22 22 21 21 21 21 21 21 20 20 19 19 18 18 17 17 17 17 16 16 16 16 16 15
21 21 20 19 21 22 24 24 24 23 22 22 22 22 22 22 21 21 22 23 23 22 22 21 21 21 20 20 20 19 19 18 18 18 17 17 17 17 16 16 16 16 15 15
20 19 19 20 22 22 23 24 25 23 21 22 22 21 21 22 19 19 22 22 22 22 22 21 21 20 20 20 19 19 18 18 18 17 17 17 16 16 16 16 16 15 15 15
21 20 20 20 21 21 22 24 24 22 21 22 22 22 22 21 21 22 22 22 22 22 21 21 20 20 20 19 19 18 18 18 17 17 17 17 16 16 16 16 15 15 15 15
19 19 19 18 20 21 22 23 22 21 22 22 22 23 22 22 22 22 22 21 21 21 21 20 20 20 19 19 18 18 18 18 17 17 17 16 16 16 16 15 15 15 15 14
18 18 18 18 19 20 22 22 23 23 22 22 22 22 22 22 21 21 21 21 21 21 20 20 20 19 19 19 18 18 18 17 17 17 17 16 16 16 16 15 15 15 14 14
18 18 17 18 19 20 21 22 23 23 23 23 22 22 22 21 21 20 20 20 20 20 19 19 19 19 18 18 18 18 17 17 17 17 16 16 16 16 15 15 15 15 14 14
18 17 17 17 18 19 21 21 22 22 22 22 22 22 21 21 20 20 19 19 19 19 19 19 19 18 18 18 18 17 17 16 16 16 16 16 16 15 15 15 15 14 14 14
17 17 16 17 18 18 20 21 21 22 22 21 21 21 21 20 20 19 19 19 19 19 18 18 18 18 17 17 17 17 16 16 16 16 16 15 15 15 15 15 14 14 14 14
Wind_Speed
4 1 5 10 9 8 6 5 5 5 5 5 7 7 8 7 8 8 8 7 7 7 7 7 8 9 8 7 6 6 5 5 4 3 2 2 1 1 1 1 1 1 2 2
5 6 11 9 7 5 4 5 3 1 4 5 7 4 5 7 10 11 11 10 9 6 6 7 7 7 8 8 7 6 6 5 5 3 3 2 2 1 1 1 1 1 2 2
8 10 8 6 5 4 4 6 5 5 3 4 6 1 2 4 5 7 9 9 10 10 9 8 8 8 8 8 8 7 5 5 4 4 3 2 2 2 1 1 1 1 1 2
7 8 7 5 5 2 4 6 8 9 5 2 3 2 5 3 4 7 8 9 9 9 8 7 8 8 8 7 6 5 5 4 4 4 4 4 3 2 2 1 1 1 0 1
7 6 5 5 6 3 4 2 4 5 4 2 2 3 5 2 4 7 8 10 10 10 11 10 9 9 8 8 6 5 5 4 4 4 4 4 3 2 1 1 0 1 1 0
8 6 5 5 5 3 2 4 6 5 5 2 3 3 5 5 9 8 8 9 10 11 11 10 8 7 6 6 6 5 5 4 3 4 4 4 4 3 2 1 1 0 1 1
7 7 5 3 3 4 4 6 4 5 4 3 2 1 6 8 8 10 9 9 9 10 10 9 9 8 7 7 7 6 6 4 3 4 3 4 4 3 3 2 2 1 0 1
4 7 6 2 5 5 2 8 7 4 4 3 2 3 6 5 3 5 7 8 7 9 10 10 10 10 10 9 8 7 6 4 3 3 2 2 3 2 1 1 1 1 1 1
6 7 6 3 3 5 2 2 7 7 3 1 3 4 4 2 3 4 6 7 8 9 10 10 9 9 9 9 8 8 7 5 4 4 3 2 1 2 2 1 1 1 1 1
8 5 7 4 3 1 5 5 6 5 4 2 3 4 4 4 6 6 7 8 8 8 9 10 9 9 8 8 7 7 7 6 5 5 4 3 2 2 2 1 2 2 2 1
6 5 5 3 1 3 1 2 5 4 6 6 3 6 6 10 10 9 8 9 10 10 10 10 8 8 8 8 7 7 6 5 5 4 4 3 3 2 2 2 2 2 1 1
5 6 3 6 5 4 4 5 6 4 3 5 5 6 5 9 9 9 8 8 8 9 9 9 9 8 8 8 7 6 6 5 5 4 4 3 3 2 2 2 2 2 2 1
4 6 2 6 7 5 0 1 4 6 5 4 4 5 1 4 5 7 8 8 8 8 9 8 8 8 8 8 7 6 6 6 5 4 4 3 2 2 2 2 2 2 2 1
5 5 7 8 8 4 2 2 2 5 4 4 6 6 3 5 6 6 7 9 9 8 8 8 8 8 8 8 7 7 6 5 5 4 4 3 3 3 2 2 2 2 2 2
5 3 3 4 4 2 2 2 1 3 6 7 7 8 9 10 10 9 7 8 8 8 8 9 9 7 7 7 6 6 6 5 6 5 4 4 3 2 2 2 2 2 2 2
4 3 2 2 2 2 1 0 2 2 3 5 5 3 6 6 7 8 8 9 8 8 9 9 9 8 8 7 6 6 6 6 6 6 5 4 3 2 2 2 2 2 2 2
2 4 3 2 3 5 4 4 2 3 3 6 5 6 5 7 9 10 10 10 8 7 7 9 9 9 8 8 7 6 5 4 5 5 5 4 4 3 3 3 2 2 3 3
4 4 4 2 3 2 7 3 5 6 2 3 4 5 7 9 8 8 9 11 10 10 9 8 8 8 7 6 6 5 5 5 5 5 4 4 4 3 3 2 3 3 2 3
6 6 4 4 3 4 5 2 4 6 1 1 5 6 6 8 7 3 4 9 11 10 8 7 7 7 6 6 6 6 5 5 5 5 4 4 4 4 3 3 3 3 3 2
5 6 5 4 4 5 6 4 3 8 1 2 5 7 8 7 4 4 6 8 9 8 7 6 6 6 6 5 6 7 6 5 4 5 4 3 4 3 3 3 3 3 3 3
3 3 3 3 3 4 5 3 4 5 6 4 5 7 6 5 6 6 6 7 8 7 7 8 8 6 5 5 7 7 5 5 4 4 4 3 3 3 3 2 2 2 2 2
2 2 2 3 3 5 4 2 4 6 4 5 5 6 5 4 5 6 6 6 7 6 7 8 8 6 4 5 7 6 5 4 3 4 3 3 2 2 2 2 2 2 2 2
1 4 4 5 5 5 2 3 4 6 6 4 5 4 6 7 6 6 5 6 6 7 6 6 7 6 4 5 6 6 5 4 4 4 3 2 2 1 2 3 2 2 2 2
4 2 3 2 1 1 3 4 3 6 6 6 6 7 7 7 6 6 6 5 5 6 5 5 6 6 4 4 4 4 4 4 5 4 3 2 2 1 1 2 2 2 3 3
3 2 2 1 1 3 5 4 3 4 6 7 6 7 8 9 7 7 6 5 5 5 4 5 6 4 3 3 3 2 3 4 4 3 2 2 2 2 1 1 2 3 4 5
2 2 3 4 4 3 2 0 3 5 5 6 6 5 6 7 8 7 6 5 5 5 4 5 5 4 3 2 2 2 3 4 4 2 2 2 2 1 2 1 1 3 4 5
Wind_Direction
294 88 238 234 221 216 200 204 222 237 192 145 158 168 189 176 161 166 165 164 163 172 174 163 161 159 149 150 147 150 147 154 144 136 132 122 120 103 71 68 89 130 136 133
337 271 245 240 240 226 204 209 227 242 172 150 147 157 194 178 177 173 170 168 163 164 171 173 172 164 160 163 163 159 162 168 162 164 162 150 141 143 132 37 45 125 128 142
236 254 259 253 253 238 237 198 193 163 92 69 111 50 236 188 171 173 175 169 167 169 174 174 171 173 166 167 170 170 172 169 165 152 129 106 78 52 36 16 358 357 137 138
256 257 267 280 275 228 271 212 175 156 138 203 155 176 266 216 188 185 179 173 174 170 167 168 166 166 170 171 166 162 159 161 162 151 140 145 145 164 205 208 245 315 60 127
254 254 257 256 258 262 245 218 139 140 129 86 29 130 266 242 221 214 190 180 176 173 172 174 173 170 173 168 160 153 148 154 156 156 156 153 157 186 197 161 101 4 346 3
254 255 233 230 254 240 173 63 52 53 76 65 255 158 252 221 209 204 195 185 180 176 174 175 171 162 163 160 156 151 145 154 162 158 158 161 168 171 167 169 148 303 296 313
300 295 280 242 300 322 82 87 34 7 17 259 262 161 247 238 207 190 186 182 182 175 169 167 167 167 168 163 164 160 157 164 168 160 165 175 177 175 180 187 189 204 247 294
249 284 271 242 189 211 214 140 158 188 206 266 329 237 258 252 209 173 170 168 174 176 170 170 175 177 177 171 171 167 163 161 160 157 167 178 175 162 172 185 189 210 220 226
200 252 271 257 225 165 180 188 166 135 122 107 267 275 314 51 107 142 161 165 173 178 173 172 175 177 172 169 172 169 164 163 167 162 158 157 161 158 166 176 177 203 229 217
180 240 285 280 22 0 164 154 88 112 146 189 261 253 222 201 174 174 171 170 175 173 169 171 175 174 167 162 163 161 163 168 168 163 169 166 176 174 170 151 173 200 215 206
167 184 286 347 162 216 350 61 102 124 150 153 210 262 217 191 183 182 184 176 171 168 167 171 169 161 153 151 155 155 155 160 169 175 173 166 176 174 161 163 190 195 185 164
173 145 236 266 263 197 174 183 148 151 207 156 162 259 242 184 184 179 178 177 171 164 162 165 160 151 150 154 157 157 160 165 173 174 171 174 178 171 169 191 210 175 158 153
145 125 105 336 336 345 57 188 150 139 126 143 157 253 273 151 169 174 167 168 168 161 158 156 152 153 156 159 159 163 166 171 172 163 160 158 162 165 185 212 209 165 142 132
122 116 157 195 222 231 263 299 120 118 135 174 196 207 221 182 173 174 162 156 158 160 153 150 153 157 159 158 162 168 172 172 165 159 160 168 180 188 197 198 184 159 145 138
101 127 177 207 213 175 207 232 140 139 170 174 198 191 208 198 185 172 156 149 151 154 148 152 154 153 152 153 160 165 171 173 168 163 171 187 185 171 160 162 172 168 159 162
65 129 107 358 16 55 34 315 87 108 134 149 151 213 221 190 152 143 145 147 154 159 157 154 151 152 156 160 166 168 177 178 167 167 179 180 163 156 167 190 185 164 167 171
67 107 105 277 321 37 325 262 175 147 171 162 187 213 174 146 151 161 161 156 155 154 153 157 162 166 169 173 172 175 174 163 156 162 170 170 168 171 192 197 188 185 185 169
139 114 131 141 55 237 248 256 135 128 130 146 154 166 160 155 158 162 159 152 155 161 162 169 168 167 169 167 162 157 153 149 146 152 165 172 171 184 202 193 189 193 182 176
150 139 127 131 168 259 287 299 136 128 79 128 136 137 130 119 90 87 168 155 160 166 166 169 167 162 158 157 154 143 140 141 146 164 179 184 177 181 190 195 208 205 189 188
71 106 121 131 158 219 249 273 152 105 78 268 147 148 145 123 125 209 193 162 155 157 156 150 139 131 146 158 144 137 139 144 165 180 182 182 181 175 187 203 212 205 187 191
31 48 119 159 199 244 264 262 97 128 209 211 156 149 147 163 185 191 171 159 156 150 139 134 128 134 156 153 140 141 147 170 184 172 163 166 179 182 180 192 204 191 182 178
164 145 183 152 175 243 292 75 143 192 180 156 145 149 146 140 132 139 143 145 141 133 133 133 133 140 147 145 143 149 170 186 162 151 156 170 183 191 175 171 196 185 173 183
145 184 184 185 209 232 233 160 170 147 137 146 142 137 127 125 133 138 142 141 138 138 144 141 141 140 143 147 149 162 181 162 145 139 158 179 186 193 177 179 193 198 189 190
319 25 91 70 339 34 71 76 89 122 132 137 132 125 120 120 120 127 130 129 133 140 149 147 136 137 150 155 149 163 164 150 141 150 170 183 179 196 175 180 186 191 204 201
278 14 61 56 309 25 24 52 78 91 103 103 106 114 127 125 119 121 132 143 146 146 153 146 143 150 165 150 134 148 148 139 141 159 179 187 196 198 192 205 210 209 221 208
257 160 155 214 226 177 224 349 80 94 108 122 116 105 114 124 129 129 142 158 156 145 138 138 141 144 162 169 157 161 164 152 149 161 194 213 211 205 190 200 275 271 241 236
Height
1494 1500 1506 1501 1498 1500 1503 1509 1511 1504 1499 1504 1508 1511 1510 1510 1511 1513 1515 1516 1518 1519 1520 1520 1521 1522 1523 1524 1524 1524 1525 1525 1525 1525 1525 1525 1524 1524 1524 1523 1522 1521 1520 1520
1501 1502 1492 1489 1489 1493 1498 1506 1507 1502 1497 1503 1510 1512 1509 1509 1510 1511 1513 1515 1516 1517 1519 1520 1521 1521 1522 1522 1523 1524 1524 1524 1524 1525 1525 1525 1525 1524 1524 1523 1522 1522 1521 1520
1502 1494 1485 1487 1490 1494 1498 1502 1503 1505 1503 1505 1511 1519 1513 1509 1509 1510 1511 1512 1514 1515 1517 1518 1519 1520 1521 1521 1522 1523 1523 1523 1524 1524 1525 1525 1524 1524 1523 1523 1522 1522 1521 1521
1494 1485 1484 1487 1489 1491 1501 1488 1490 1497 1510 1521 1515 1535 1520 1512 1510 1509 1509 1510 1512 1514 1516 1517 1517 1518 1519 1521 1521 1522 1523 1523 1523 1524 1524 1523 1523 1523 1523 1522 1522 1522 1521 1520
1493 1485 1485 1488 1485 1484 1490 1483 1488 1495 1509 1521 1519 1530 1525 1513 1513 1508 1506 1508 1509 1511 1514 1515 1515 1516 1518 1519 1520 1521 1521 1522 1522 1523 1523 1523 1523 1523 1523 1522 1522 1521 1521 1520
1484 1479 1479 1479 1477 1478 1482 1488 1495 1504 1516 1534 1525 1529 1528 1514 1506 1504 1504 1505 1507 1509 1512 1513 1515 1516 1517 1518 1519 1520 1520 1521 1522 1522 1522 1522 1522 1522 1522 1521 1521 1521 1520 1520
1490 1481 1475 1473 1479 1480 1484 1505 1526 1531 1539 1537 1522 1525 1522 1501 1496 1497 1499 1502 1505 1508 1510 1511 1513 1515 1516 1517 1518 1519 1520 1520 1521 1521 1521 1521 1521 1521 1521 1521 1520 1520 1520 1519
1502 1499 1478 1472 1478 1485 1486 1499 1526 1539 1543 1537 1524 1526 1511 1495 1493 1493 1497 1500 1504 1506 1508 1510 1511 1513 1514 1515 1517 1518 1519 1520 1520 1520 1520 1520 1521 1520 1520 1520 1520 1519 1519 1518
1498 1496 1473 1469 1469 1475 1486 1494 1496 1518 1528 1538 1531 1519 1505 1495 1494 1495 1497 1500 1503 1504 1506 1508 1510 1512 1513 1514 1517 1518 1518 1519 1519 1519 1520 1520 1520 1520 1519 1519 1519 1518 1518 1518
1482 1492 1477 1470 1469 1472 1476 1484 1502 1517 1536 1544 1533 1525 1518 1503 1498 1496 1497 1499 1501 1503 1505 1507 1509 1511 1513 1514 1516 1517 1518 1518 1519 1519 1519 1519 1519 1519 1519 1518 1518 1518 1517 1517
1475 1490 1485 1477 1480 1483 1482 1487 1499 1514 1520 1537 1542 1528 1496 1495 1493 1494 1496 1497 1499 1501 1503 1505 1507 1510 1511 1513 1515 1515 1517 1517 1518 1518 1518 1518 1518 1517 1517 1517 1517 1517 1516 1516
1471 1486 1495 1485 1473 1469 1474 1481 1493 1511 1518 1522 1530 1521 1485 1487 1489 1492 1494 1496 1498 1500 1502 1505 1506 1509 1510 1512 1513 1514 1515 1516 1517 1517 1517 1517 1516 1516 1516 1516 1516 1516 1515 1515
1468 1486 1504 1501 1492 1478 1477 1477 1483 1495 1508 1519 1526 1516 1487 1487 1489 1490 1492 1494 1497 1499 1501 1503 1505 1507 1509 1510 1511 1513 1514 1515 1515 1516 1516 1515 1515 1515 1514 1514 1514 1514 1514 1513
1462 1482 1495 1504 1497 1484 1481 1478 1479 1490 1508 1513 1510 1504 1493 1490 1490 1489 1490 1492 1495 1497 1499 1502 1504 1506 1507 1509 1510 1512 1513 1513 1514 1514 1514 1514 1513 1513 1513 1513 1513 1513 1512 1512
1464 1480 1480 1479 1475 1475 1477 1478 1477 1484 1491 1500 1498 1496 1491 1486 1486 1487 1489 1492 1494 1497 1499 1501 1503 1504 1506 1507 1509 1511 1512 1512 1512 1513 1513 1513 1512 1512 1512 1512 1512 1511 1511 1511
1467 1477 1479 1481 1475 1474 1477 1475 1476 1479 1481 1487 1490 1491 1482 1481 1484 1486 1488 1491 1493 1495 1497 1499 1501 1503 1505 1506 1508 1509 1509 1510 1510 1511 1511 1511 1511 1511 1511 1511 1510 1509 1509 1509
1472 1478 1487 1492 1481 1480 1489 1478 1476 1479 1479 1482 1489 1485 1479 1482 1483 1485 1486 1488 1492 1494 1497 1498 1500 1501 1503 1504 1505 1507 1507 1508 1509 1509 1509 1510 1510 1510 1509 1509 1509 1508 1507 1507
1472 1479 1490 1495 1491 1503 1487 1469 1469 1475 1478 1476 1477 1478 1478 1479 1481 1483 1485 1487 1490 1493 1495 1497 1498 1500 1501 1502 1504 1505 1506 1507 1507 1508 1508 1508 1508 1508 1508 1507 1507 1506 1506 1505
1463 1474 1488 1499 1502 1495 1479 1470 1470 1476 1482 1476 1477 1478 1479 1479 1483 1485 1485 1486 1488 1490 1493 1495 1497 1498 1500 1501 1502 1504 1504 1505 1505 1506 1506 1506 1506 1505 1505 1505 1505 1504 1504 1503
1463 1469 1484 1494 1498 1501 1483 1468 1465 1471 1487 1478 1476 1478 1478 1479 1488 1488 1485 1485 1487 1489 1491 1493 1495 1496 1498 1500 1501 1502 1502 1502 1503 1503 1503 1504 1504 1503 1503 1503 1503 1503 1502 1501
1476 1478 1485 1491 1494 1487 1472 1466 1465 1486 1487 1477 1476 1476 1477 1478 1480 1482 1483 1484 1486 1488 1489 1491 1493 1494 1496 1498 1499 1499 1500 1500 1501 1502 1502 1502 1502 1502 1502 1501 1501 1501 1500 1500
1480 1485 1487 1491 1495 1491 1468 1466 1472 1475 1471 1473 1474 1475 1476 1477 1479 1481 1482 1483 1485 1486 1487 1489 1491 1493 1495 1496 1497 1497 1497 1498 1499 1499 1499 1500 1500 1500 1500 1500 1499 1499 1498 1498
1476 1477 1479 1482 1482 1471 1467 1466 1467 1468 1470 1472 1473 1474 1475 1477 1478 1480 1482 1483 1484 1485 1487 1488 1489 1491 1492 1494 1495 1495 1496 1496 1497 1497 1497 1498 1498 1498 1498 1498 1497 1497 1496 1496
1473 1470 1473 1475 1473 1469 1468 1467 1467 1468 1469 1471 1472 1473 1475 1476 1478 1479 1481 1483 1484 1485 1487 1487 1488 1489 1490 1491 1492 1493 1494 1494 1495 1495 1495 1495 1495 1495 1495 1496 1495 1495 1494 1493
1474 1472 1474 1476 1473 1470 1469 1468 1468 1468 1469 1471 1472 1473 1474 1475 1477 1478 1480 1482 1484 1485 1487 1487 1487 1488 1489 1490 1490 1491 1492 1493 1493 1493 1493 1493 1493 1493 1493 1493 1493 1492 1492 1492
1472 1473 1476 1477 1472 1471 1471 1470 1469 1468 1469 1471 1473 1474 1475 1475 1476 1478 1480 1482 1483 1484 1485 1486 1487 1487 1488 1488 1489 1489 1490 1491 1491 1491 1491 1491 1491 1491 1490 1490 1490 1490 1490 1490